�������l�o���
Date,Time,MP-1(��Sv/h),MP-2(��Sv/h),MP-3(��Sv/h),MP-4(��Sv/h),MP-5(��Sv/h),MP-6(��Sv/h),MP-7(��Sv/h),MP-8(��Sv/h),����,����(m/s),���J
2017/08/07,00:00,0.987,1.551,1.028,1.834,1.283,0.527,0.961,0.883,��,2.3,��
2017/08/07,00:10,0.987,1.547,1.028,1.839,1.285,0.529,0.962,0.883,��,3.2,��
2017/08/07,00:20,0.986,1.549,1.028,1.837,1.285,0.529,0.961,0.883,��,2.9,��
2017/08/07,00:30,0.987,1.550,1.026,1.838,1.283,0.528,0.962,0.884,��,2.8,��
2017/08/07,00:40,0.990,1.552,1.024,1.835,1.284,0.528,0.960,0.884,��,2.0,��
2017/08/07,00:50,0.988,1.548,1.026,1.835,1.284,0.528,0.960,0.886,��쓌,1.4,��
2017/08/07,01:00,0.989,1.551,1.026,1.838,1.284,0.528,0.964,0.884,��,0.8,��
2017/08/07,01:10,0.987,1.550,1.028,1.836,1.282,0.527,0.961,0.883,��쐼,1.7,��
2017/08/07,01:20,0.986,1.549,1.028,1.835,1.285,0.529,0.961,0.882,��,1.5,��
2017/08/07,01:30,0.989,1.549,1.027,1.836,1.284,0.529,0.961,0.884,��,0.9,��
2017/08/07,01:40,0.987,1.550,1.030,1.837,1.284,0.530,0.961,0.882,��쓌,0.9,��
2017/08/07,01:50,0.989,1.549,1.028,1.838,1.285,0.529,0.961,0.884,-,CALM,��
2017/08/07,02:00,0.986,1.551,1.027,1.837,1.286,0.529,0.961,0.884,��쓌,0.9,��
2017/08/07,02:10,0.990,1.550,1.028,1.837,1.284,0.529,0.961,0.883,-,CALM,��
2017/08/07,02:20,0.989,1.551,1.028,1.837,1.285,0.530,0.960,0.884,�쓌,0.9,��
2017/08/07,02:30,0.989,1.550,1.030,1.838,1.285,0.528,0.962,0.886,��쓌,0.8,��
2017/08/07,02:40,0.988,1.550,1.026,1.839,1.284,0.529,0.962,0.885,��,0.9,��
2017/08/07,02:50,0.989,1.552,1.028,1.837,1.285,0.528,0.963,0.884,��쐼,1.4,��
2017/08/07,03:00,0.989,1.552,1.030,1.838,1.284,0.529,0.961,0.885,��쐼,1.9,��
2017/08/07,03:10,0.989,1.551,1.029,1.838,1.286,0.529,0.963,0.884,��쐼,1.4,��
2017/08/07,03:20,0.990,1.553,1.030,1.837,1.286,0.529,0.962,0.885,��쓌,1.4,��
2017/08/07,03:30,0.988,1.551,1.029,1.837,1.283,0.528,0.962,0.883,��쓌,2.0,��
2017/08/07,03:40,0.985,1.548,1.029,1.838,1.281,0.528,0.960,0.883,��쐼,1.1,��
2017/08/07,03:50,0.989,1.550,1.029,1.839,1.284,0.530,0.962,0.885,��쐼,0.9,��
2017/08/07,04:00,0.987,1.550,1.030,1.838,1.285,0.529,0.960,0.884,��쐼,0.8,��
2017/08/07,04:10,0.989,1.551,1.028,1.837,1.284,0.529,0.962,0.884,�쓌,0.6,��
2017/08/07,04:20,0.990,1.551,1.029,1.840,1.285,0.527,0.961,0.883,��,0.6,��
2017/08/07,04:30,0.989,1.550,1.028,1.836,1.284,0.528,0.961,0.883,�쐼,0.8,��
2017/08/07,04:40,0.987,1.549,1.027,1.839,1.285,0.526,0.961,0.885,��,0.8,�L
2017/08/07,04:50,0.988,1.551,1.030,1.839,1.283,0.529,0.963,0.886,��쓌,1.1,�L
2017/08/07,05:00,0.989,1.550,1.028,1.836,1.285,0.528,0.961,0.883,-,CALM,�L
2017/08/07,05:10,0.988,1.550,1.028,1.838,1.284,0.527,0.961,0.882,���쓌,0.8,��
2017/08/07,05:20,0.990,1.551,1.029,1.837,1.284,0.528,0.961,0.885,-,CALM,��
2017/08/07,05:30,0.991,1.548,1.029,1.836,1.284,0.530,0.960,0.885,���쐼,0.6,�L
2017/08/07,05:40,0.989,1.549,1.029,1.839,1.284,0.526,0.963,0.885,���쐼,1.7,�L
2017/08/07,05:50,0.988,1.549,1.027,1.837,1.282,0.529,0.962,0.883,�쐼,1.7,�L
2017/08/07,06:00,0.986,1.548,1.029,1.834,1.282,0.528,0.960,0.884,��,2.8,�L
2017/08/07,06:10,0.988,1.550,1.027,1.838,1.281,0.527,0.960,0.884,��,2.9,�L
2017/08/07,06:20,0.988,1.547,1.028,1.836,1.282,0.528,0.959,0.883,��,1.9,��
2017/08/07,06:30,0.986,1.548,1.025,1.836,1.282,0.528,0.959,0.884,��쓌,1.2,��
2017/08/07,06:40,0.987,1.549,1.029,1.836,1.285,0.526,0.961,0.884,��쓌,1.4,��
2017/08/07,06:50,0.986,1.548,1.028,1.835,1.280,0.529,0.959,0.884,��쓌,1.7,�L
2017/08/07,07:00,0.986,1.549,1.026,1.838,1.285,0.527,0.959,0.884,��쓌,1.7,�L
2017/08/07,07:10,0.988,1.550,1.025,1.836,1.285,0.530,0.960,0.884,�쓌,1.5,�L
2017/08/07,07:20,0.987,1.549,1.028,1.837,1.285,0.528,0.959,0.884,���쓌,2.2,��
2017/08/07,07:30,0.986,1.548,1.026,1.840,1.285,0.527,0.958,0.885,���쓌,1.5,��
2017/08/07,07:40,0.988,1.550,1.027,1.836,1.282,0.529,0.959,0.885,�쓌,1.9,��
2017/08/07,07:50,0.987,1.547,1.029,1.839,1.283,0.529,0.959,0.885,��쓌,1.7,��
2017/08/07,08:00,0.989,1.547,1.027,1.839,1.283,0.529,0.961,0.883,��,1.2,��
2017/08/07,08:10,0.988,1.553,1.029,1.836,1.285,0.529,0.960,0.882,�쓌,2.0,��
2017/08/07,08:20,0.987,1.548,1.028,1.839,1.288,0.528,0.961,0.883,��쓌,2.6,��
2017/08/07,08:30,0.989,1.548,1.027,1.839,1.286,0.528,0.961,0.882,��쓌,3.2,��
2017/08/07,08:40,0.989,1.548,1.028,1.839,1.282,0.528,0.960,0.881,��쓌,3.2,��
2017/08/07,08:50,0.988,1.547,1.027,1.835,1.283,0.526,0.961,0.881,��쓌,3.2,��
2017/08/07,09:00,0.987,1.549,1.029,1.840,1.284,0.528,0.960,0.882,��쓌,5.1,��
2017/08/07,09:10,0.985,1.549,1.027,1.840,1.288,0.527,0.964,0.881,��쓌,5.4,��
2017/08/07,09:20,0.988,1.548,1.025,1.837,1.283,0.528,0.963,0.883,��쓌,5.1,��
2017/08/07,09:30,0.989,1.546,1.027,1.837,1.287,0.526,0.965,0.881,��,4.5,��
2017/08/07,09:40,0.989,1.551,1.022,1.840,1.288,0.527,0.965,0.883,��쓌,4.7,��
2017/08/07,09:50,0.991,1.548,1.029,1.841,1.284,0.528,0.963,0.881,��쓌,5.3,��
2017/08/07,10:00,0.990,1.549,1.027,1.840,1.289,0.529,0.959,0.884,��쓌,6.5,��
2017/08/07,10:10,0.992,1.550,1.031,1.840,1.287,0.526,0.963,0.883,��쓌,5.7,��
2017/08/07,10:20,0.991,1.550,1.030,1.839,1.290,0.527,0.961,0.883,��쓌,4.2,��
2017/08/07,10:30,0.992,1.552,1.029,1.841,1.289,0.528,0.962,0.884,��쓌,5.8,��
2017/08/07,10:40,0.993,1.553,1.029,1.841,1.293,0.527,0.962,0.882,��쓌,5.9,��
2017/08/07,10:50,0.992,1.552,1.031,1.842,1.290,0.529,0.961,0.883,��쓌,6.0,��
2017/08/07,11:00,0.991,1.552,1.032,1.841,1.291,0.528,0.963,0.886,��쓌,5.7,��
2017/08/07,11:10,0.993,1.555,1.030,1.838,1.292,0.528,0.962,0.884,��,5.5,��
2017/08/07,11:20,0.994,1.553,1.030,1.843,1.293,0.528,0.959,0.882,��쓌,5.6,��
2017/08/07,11:30,0.992,1.555,1.029,1.841,1.292,0.525,0.963,0.883,��쓌,5.2,��
2017/08/07,11:40,0.995,1.553,1.032,1.841,1.289,0.529,0.965,0.883,��쓌,6.0,��
2017/08/07,11:50,0.993,1.556,1.032,1.842,1.294,0.528,0.964,0.884,��쓌,4.8,��
2017/08/07,12:00,0.994,1.558,1.031,1.841,1.293,0.527,0.962,0.884,��쓌,6.1,��
2017/08/07,12:10,0.996,1.560,1.032,1.842,1.294,0.528,0.964,0.885,��쓌,6.6,��
2017/08/07,12:20,0.997,1.560,1.033,1.842,1.296,0.527,0.964,0.884,��쓌,5.6,��
2017/08/07,12:30,0.996,1.560,1.034,1.842,1.296,0.527,0.963,0.885,��쓌,5.0,��
2017/08/07,12:40,0.995,1.559,1.033,1.845,1.296,0.526,0.963,0.884,�쓌,5.9,��
2017/08/07,12:50,0.997,1.563,1.036,1.844,1.297,0.527,0.963,0.886,��쓌,5.2,��
2017/08/07,13:00,0.995,1.558,1.034,1.847,1.298,0.527,0.965,0.886,��쓌,4.6,��
2017/08/07,13:10,0.998,1.560,1.034,1.844,1.298,0.528,0.963,0.886,��쓌,6.1,��
2017/08/07,13:20,0.995,1.559,1.036,1.844,1.298,0.527,0.964,0.884,��쓌,7.0,��
2017/08/07,13:30,0.994,1.560,1.035,1.845,1.299,0.527,0.963,0.885,�쓌,4.7,��
2017/08/07,13:40,0.997,1.561,1.035,1.847,1.301,0.527,0.962,0.886,���쓌,3.7,��
2017/08/07,13:50,0.997,1.561,1.036,1.848,1.299,0.528,0.961,0.886,��쓌,4.2,��
2017/08/07,14:00,0.998,1.561,1.035,1.845,1.300,0.528,0.961,0.885,��쓌,4.5,��
2017/08/07,14:10,0.997,1.560,1.034,1.846,1.302,0.527,0.961,0.885,��쓌,7.3,��
2017/08/07,14:20,0.997,1.561,1.035,1.848,1.301,0.527,0.963,0.885,��쓌,9.1,��
2017/08/07,14:30,0.995,1.562,1.037,1.846,1.301,0.528,0.965,0.885,��쓌,9.4,��
2017/08/07,14:40,0.998,1.561,1.036,1.848,1.300,0.529,0.964,0.887,��쓌,8.1,��
2017/08/07,14:50,0.999,1.563,1.035,1.845,1.305,0.530,0.964,0.887,��쓌,8.4,��
2017/08/07,15:00,0.998,1.560,1.036,1.849,1.300,0.528,0.965,0.885,��쓌,10.3,��
2017/08/07,15:10,0.996,1.561,1.037,1.850,1.299,0.529,0.966,0.888,��쓌,9.2,��
2017/08/07,15:20,0.999,1.567,1.034,1.852,1.300,0.530,0.964,0.887,��쓌,9.2,�L
2017/08/07,15:30,0.996,1.566,1.036,1.850,1.301,0.530,0.964,0.886,��쓌,8.6,��
2017/08/07,15:40,0.997,1.561,1.038,1.848,1.303,0.527,0.966,0.887,��쓌,7.5,��
2017/08/07,15:50,0.997,1.564,1.036,1.850,1.301,0.529,0.963,0.887,��쓌,8.7,��
2017/08/07,16:00,0.997,1.565,1.037,1.850,1.301,0.528,0.964,0.887,��,7.4,��
2017/08/07,16:10,0.998,1.565,1.039,1.849,1.303,0.529,0.963,0.887,��,8.6,��
2017/08/07,16:20,0.995,1.565,1.035,1.852,1.302,0.527,0.965,0.886,��,7.9,��
2017/08/07,16:30,0.998,1.565,1.037,1.851,1.303,0.528,0.966,0.886,��쓌,8.2,��
2017/08/07,16:40,0.998,1.563,1.036,1.852,1.303,0.529,0.966,0.886,��쓌,8.7,��
2017/08/07,16:50,0.999,1.564,1.035,1.850,1.301,0.527,0.966,0.887,��쓌,7.6,��
2017/08/07,17:00,0.997,1.566,1.035,1.852,1.302,0.528,0.965,0.885,��쓌,5.6,��
2017/08/07,17:10,0.996,1.565,1.036,1.851,1.299,0.528,0.965,0.884,��쓌,7.7,��
2017/08/07,17:20,0.997,1.564,1.033,1.853,1.302,0.526,0.965,0.885,��쓌,8.1,��
2017/08/07,17:30,0.997,1.565,1.035,1.849,1.300,0.527,0.964,0.886,��쓌,6.9,��
2017/08/07,17:40,0.995,1.565,1.037,1.851,1.298,0.530,0.965,0.887,��쓌,7.3,��
2017/08/07,17:50,0.998,1.563,1.034,1.851,1.300,0.528,0.963,0.886,��쓌,8.4,��
2017/08/07,18:00,0.997,1.562,1.035,1.851,1.299,0.528,0.964,0.885,��쓌,9.7,��
2017/08/07,18:10,0.997,1.566,1.036,1.850,1.301,0.528,0.964,0.885,��쓌,8.6,��
2017/08/07,18:20,0.997,1.562,1.038,1.848,1.303,0.529,0.964,0.885,��쓌,7.0,��
2017/08/07,18:30,0.995,1.565,1.036,1.849,1.299,0.529,0.964,0.887,��쓌,6.0,��
2017/08/07,18:40,0.995,1.564,1.033,1.850,1.301,0.529,0.966,0.887,�쓌,11.3,��
2017/08/07,18:50,0.995,1.565,1.036,1.850,1.303,0.530,0.965,0.887,�쓌,10.2,��
2017/08/07,19:00,0.994,1.567,1.035,1.849,1.299,0.530,0.964,0.886,��쓌,9.1,��
2017/08/07,19:10,0.995,1.565,1.039,1.848,1.301,0.530,0.965,0.887,��쓌,9.4,��
2017/08/07,19:20,0.996,1.563,1.035,1.850,1.303,0.529,0.964,0.885,��쓌,9.0,�L
2017/08/07,19:30,0.995,1.565,1.036,1.850,1.300,0.530,0.963,0.886,��쓌,9.3,�L
2017/08/07,19:40,0.997,1.565,1.037,1.848,1.301,0.530,0.964,0.886,��쓌,10.9,��
2017/08/07,19:50,0.996,1.565,1.037,1.849,1.305,0.532,0.964,0.885,�쓌,10.6,��
2017/08/07,20:00,0.997,1.564,1.040,1.847,1.303,0.529,0.964,0.885,��쓌,10.4,��
2017/08/07,20:10,0.994,1.566,1.037,1.851,1.302,0.531,0.965,0.885,�쓌,6.4,��
2017/08/07,20:20,0.995,1.563,1.035,1.850,1.302,0.530,0.964,0.886,�쓌,6.0,��
2017/08/07,20:30,0.996,1.566,1.040,1.849,1.298,0.530,0.965,0.885,�쓌,5.2,��
2017/08/07,20:40,0.992,1.565,1.036,1.850,1.302,0.530,0.964,0.886,�쓌,8.8,��
2017/08/07,20:50,0.995,1.565,1.036,1.852,1.303,0.528,0.964,0.887,�쓌,9.1,��
2017/08/07,21:00,0.996,1.560,1.039,1.850,1.301,0.530,0.964,0.887,�쓌,8.7,��
2017/08/07,21:10,0.995,1.565,1.037,1.850,1.301,0.529,0.963,0.886,�쓌,9.9,��
2017/08/07,21:20,0.996,1.566,1.037,1.851,1.301,0.530,0.966,0.886,�쓌,9.5,��
2017/08/07,21:30,0.994,1.565,1.036,1.849,1.300,0.530,0.963,0.885,�쓌,9.6,��
2017/08/07,21:40,0.994,1.565,1.037,1.852,1.302,0.530,0.964,0.887,�쓌,9.8,��
2017/08/07,21:50,0.994,1.565,1.035,1.849,1.299,0.529,0.963,0.886,�쓌,9.3,��
2017/08/07,22:00,0.994,1.563,1.037,1.851,1.302,0.530,0.963,0.886,�쓌,9.3,��
2017/08/07,22:10,0.994,1.566,1.037,1.850,1.301,0.531,0.963,0.885,�쓌,10.2,��
2017/08/07,22:20,0.997,1.564,1.040,1.850,1.298,0.530,0.963,0.885,�쓌,9.7,��
2017/08/07,22:30,0.994,1.565,1.037,1.847,1.300,0.531,0.965,0.886,�쓌,8.9,��
2017/08/07,22:40,0.995,1.565,1.038,1.850,1.300,0.529,0.965,0.887,�쓌,10.6,��
2017/08/07,22:50,0.996,1.566,1.036,1.848,1.300,0.531,0.964,0.888,���쓌,10.7,��
2017/08/07,23:00,0.993,1.563,1.037,1.850,1.300,0.530,0.964,0.887,�쓌,10.5,��
2017/08/07,23:10,0.996,1.563,1.039,1.850,1.301,0.529,0.963,0.887,���쓌,10.7,��
2017/08/07,23:20,0.994,1.565,1.036,1.849,1.299,0.531,0.965,0.886,���쓌,10.3,��
2017/08/07,23:30,0.995,1.566,1.038,1.849,1.297,0.530,0.963,0.886,�쓌,11.3,��
2017/08/07,23:40,0.995,1.563,1.037,1.849,1.300,0.530,0.964,0.886,�쓌,11.4,��
2017/08/07,23:50,0.996,1.565,1.036,1.848,1.302,0.529,0.964,0.887,�쓌,11.6,��
